Regional Weather Roundup
Issued by NWS Upton, NY

Current Version | Previous Version | Text Only | Print | Product List | Glossary On
Versions: 1 2 3 4 5 6 7 8 9 10 11 12 13 14 15 16 17 18 19 20 21 22 23 24 25 26 27 28 29 30 31 32 33 34 35 36 37 38 39 40 41 42 43 44 45 46 47 48 49 50
000
ASUS41 KOKX 292108
RWROKX

REGIONAL WEATHER ROUNDUP
NATIONAL WEATHER SERVICE NEW YORK NY
500 PM EDT FRI MAY 29 2015

NOTE: "FAIR" INDICATES FEW OR NO CLOUDS BELOW 12,000 FEET WITH NO
SIGNIFICANT WEATHER AND/OR OBSTRUCTIONS TO VISIBILITY.

NYZ071-072-176-178-NJZ106-104-292200-
NEW YORK CITY METRO AREA


CITY           SKY/WX    TMP DP  RH WIND       PRES   REMARKS
CENTRAL PARK   MOSUNNY   78  55  44 VRB5      30.26S
LAGUARDIA APRT PTSUNNY   80  54  40 SE7       30.22F
KENNEDY INTL   PTSUNNY   74  55  51 SE10      30.25F
NEWARK/LIBERTY PTSUNNY   78  56  46 SE8       30.22F
BRNX BOT. GARD   N/A     79  57  47 SE5       30.22F
TETERBORO      MOSUNNY   82  53  36 S8        30.20F
$$

NYZ177-179-078>081-292200-
LONG ISLAND NEW YORK

CITY           SKY/WX    TMP DP  RH WIND       PRES   REMARKS
FARMINGDALE    SUNNY     73  57  57 SE9       30.26S
ISLIP          PTSUNNY   73  56  54 SE8       30.24S
SHIRLEY        SUNNY     72  56  57 SE6       30.26F
WESTHAMPTON    SUNNY     71  56  58 S8        30.27F
MONTAUK POINT    N/A     71  58  63 VRB6      30.27F
$$

NYZ052-065-067-292200-
HUDSON VALLEY

CITY           SKY/WX    TMP DP  RH WIND       PRES   REMARKS
WHITE PLAINS   MOSUNNY   78  56  46 SE10      30.23F
NEWBURGH       PTSUNNY   81  59  47 VRB6      30.24F
MONTGOMERY     PTSUNNY   82  57  42 SE3       30.22F
POUGHKEEPSIE   MOSUNNY   82  54  37 W6        30.21F
ALBANY         CLOUDY    83  54  36 VRB6      30.20F
$$

NJZ001-105-106-008-010-013-015-019>022-104-292200-
NEW JERSEY

CITY           SKY/WX    TMP DP  RH WIND       PRES   REMARKS
NEWARK/LIBERTY PTSUNNY   78  56  46 SE8       30.22F
TETERBORO      MOSUNNY   82  53  36 S8        30.20F
CALDWELL       MOSUNNY   83  56  39 S9        30.21F
MORRISTOWN     MOSUNNY   86  55  35 SW10      30.21F
SOMERVILLE     MOSUNNY   85  56  37 CALM      30.19F
SUSSEX         PTSUNNY   82  55  39 CALM      30.23F
ANDOVER          N/A     83  56  39 SW5       30.22F
TRENTON        SUNNY     86  58  38 S8        30.20F
MILLVILLE      SUNNY     81  63  54 SE13      30.23S
ATLANTIC CITY  SUNNY     75  58  55 SE10      30.24F
WRIGHTSTOWN    SUNNY     83  60  46 SE12      30.19F
TOMS RIVER     SUNNY    N/A N/A N/A SE12      30.24F
BELMAR         SUNNY     73  55  53 SE9       30.25F
$$

PAZ047>061-062-071-292200-
EASTERN PENNSYLVANIA

CITY           SKY/WX    TMP DP  RH WIND       PRES   REMARKS
PHILADELPHIA   MOSUNNY   86  62  44 MISG      30.20F
ALLENTOWN      PTSUNNY   87  57  35 SW7       30.20F
SCRANTON       PTSUNNY   84  53  34 SW7       30.21F
$$

CTZ002-004>006-009-010-012-RIZ004-006-007-MAZ004-011-015-292200-
SOUTHERN NEW ENGLAND
 IN CT

CITY           SKY/WX    TMP DP  RH WIND       PRES   REMARKS
BRADLEY INTL   PTSUNNY   83  56  39 SE7       30.21F
HARTFORD       SUNNY     82  60  47 S12G24    30.21F
DANBURY        MOSUNNY   78  57  48 SW9       30.24F
WTRBRY/OXFORD  MOSUNNY   79  61  53 S9        30.27S
BRIDGEPORT     SUNNY     79  55  43 S7        30.24F
MERIDEN        SUNNY     81  56  42 VRB6      30.23F
NEW HAVEN      MOSUNNY   77  54  44 S6        30.24F
CHESTER        FAIR      79  55  44 SW7       30.26F
GROTON         SUNNY     71  56  58 S8        30.25F
WILLIMANTIC    CLOUDY    83  59  44 SW7       30.23F

 IN RI

CITY           SKY/WX    TMP DP  RH WIND       PRES   REMARKS
PROVIDENCE     PTSUNNY   76  57  51 S13       30.25F
BLOCK ISLAND   SUNNY     68  55  64 S9        30.27F
WESTERLY       SUNNY     70  56  61 S7        30.27S

 IN MA

CITY           SKY/WX    TMP DP  RH WIND       PRES   REMARKS
BOSTON         MOSUNNY   60  58  92 E9        30.27F
WORCESTER      MOSUNNY   78  56  46 S7        30.26F
WESTFIELD      SUNNY     82  54  37 VRB3      30.22F
PROVINCETOWN   SUNNY     63  55  77 NE9       30.28S
NANTUCKET      SUNNY     66  57  72 SE7       30.27F
$$

ANZ330-335-338-340-345-350-353-355-292200-
COASTAL MARINE OBSERVATIONS


STATION/POSITION TIME  SKY/WX   TEMP    WIND        PRES    VSBY  WAVE
                                AIR SEA DIR/SP/G                  HT/PER
                 (UTC)          (F)     (DEG/KT/KT) (MB)    (MI)  (FT/S)
NY HARB ENTRANCE 2050            63 62  150/  8/ 10 1024.1          2/ 8
4S FIRE IS       2003               59                N/A           3/ 8
20S FIRE ISLAND  2050            60 60  150/  8/  8 1024.3          2/ 8
GREAT SOUTH BAY  2030            65 70  160/  8/ 10   N/A
23SW MTP         2050            58 57  160/  6/  8 1024.5          2/ 9
HUDSON CANYON    NOT AVBL
KINGS POINT      NOT AVBL
CENTRAL LI SOUND 2015            74 68   CALM  /  2   N/A
EASTERN LI SOUND 2000            62     140/  6/  8   N/A
ROBBINS REEF     NOT AVBL
$$


>>>>>>>>>>>>>>>>>>>>>>>>>>>> KEY <<<<<<<<<<<<<<<<<<<<<<<<<<<
>                                                          <
>     SKY/WX - SKY CONDITION/PRESENT WEATHER               <
>     TMP    - TEMPERATURE IN FAHRENHEIT                   <
>     DP     - DEWPOINT IN FAHRENHEIT                      <
>     RH     - RELATIVE HUMIDITY IN PERCENT                <
>     WIND   - DIRECTION AND SPEED IN MPH                  <
>     PRES   - MEAN SEA LEVEL PRESSURE IN INCHES OF HG     <
>     WCI    - WIND CHILL INDEX                            <
>     VSB    - VISIBILITY IN MILES                         <
>     HX     - HEAT INDEX                                  <
>     TC     - TEMPERATURE IN CELSIUS                      <
>     VRB    - VARIABLE WIND DIRECTION                     <
>                                                          <
>>>>>>>>>>>>>>>>>>>>>>>>>>>> KEY <<<<<<<<<<<<<<<<<<<<<<<<<<<




USA.gov is the U.S. government's official web portal to all federal, state and local government web resources and services.